{"data":{"norad_id":60393,"epoch":"2026-09-22T22:18:49.853952Z","epoch_age_seconds":76344,"freshness":"FRESH","line1":"1 60393U 24140Q   26265.92974368  .00000052  00000+0  61091-4 0  9998","line2":"2 60393  88.9662 269.7554 0014576  93.3042 266.9777 13.51028319105636","mean_motion":13.51028319,"eccentricity":0.0014576,"inclination_deg":88.9662,"raan_deg":269.7554,"arg_perigee_deg":93.3042,"mean_anomaly_deg":266.9777,"bstar":6.1091e-5,"rev_number":10563,"period_min":106.58547861275,"perigee_km":1057.6233387552,"apogee_km":1079.3317094158,"semimajor_km":7446.6145240855,"source":"CELESTRAK","updated_at":"2026-09-23T09:00:20.600860Z"}}